GFSGBSN_con_3kmhel_132.txt.gz
Helicity
142 146 143 138 151 182 87 112 126 133 134 128 99 81 72 46 48 51 41 36 41 33 23 19 23 48 45 20 53 99 26 22 6 20 34 45 44 58 52 89 92 63 43 45 62 95 74
101 107 115 134 139 153 163 100 144 153 140 116 139 125 104 81 55 50 51 45 39 33 39 35 23 27 13 26 131 76 54 36 45 35 30 29 66 72 53 51 61 68 112 69 57 53 40
116 119 104 104 123 146 163 163 134 151 130 143 139 135 133 113 84 72 53 53 51 40 39 43 38 17 18 22 90 63 44 64 67 56 49 62 50 57 104 56 128 75 58 35 30 51 165
185 165 127 108 110 125 143 166 165 224 118 134 156 153 119 115 89 68 61 52 70 60 60 36 26 29 43 136 118 88 53 39 42 26 31 28 38 38 31 60 55 39 32 36 175 90 28
171 169 153 149 101 106 121 150 173 180 201 154 125 135 151 137 123 102 69 57 60 72 47 44 33 13 30 151 64 40 69 67 62 31 38 48 53 64 67 82 83 14 61 71 80 30 96
136 153 154 135 128 101 104 123 156 159 175 186 155 157 165 153 156 143 81 68 57 71 25 -11 43 87 24 51 64 109 75 79 56 40 38 37 60 54 50 37 84 221 233 173 128 87 145
105 111 130 137 131 128 126 115 128 143 148 150 159 85 141 184 189 136 114 62 106 64 84 112 91 123 104 139 197 65 54 49 59 59 15 -4 24 16 31 296 227 153 118 109 69 75 95
103 99 107 106 110 105 97 101 99 94 107 117 130 124 98 242 245 157 140 151 189 195 140 79 72 140 150 161 108 65 110 84 41 41 -15 62 46 38 241 124 102 116 102 67 51 65 91
102 113 108 117 117 100 74 70 93 101 99 92 112 125 91 218 252 170 97 185 164 119 174 128 106 63 106 166 125 90 115 37 95 82 54 91 121 234 144 123 98 69 69 79 93 70 23
86 101 102 101 92 92 77 64 69 77 92 107 114 94 91 293 263 198 220 190 156 177 189 68 98 154 120 174 111 67 193 107 105 88 49 96 48 156 97 113 94 83 183 120 62 91 74
78 74 74 79 70 60 51 49 63 62 58 85 104 81 162 371 135 183 160 225 125 138 246 204 81 129 108 293 195 115 243 222 145 82 192 127 84 134 107 55 136 83 110 60 51 67 83
78 77 75 78 69 57 53 43 59 70 66 78 109 89 175 178 175 157 246 201 219 176 264 263 209 136 105 103 139 201 208 180 162 171 121 75 127 116 53 93 86 70 40 15 20 28 85
62 64 74 80 73 51 55 45 54 64 62 96 100 47 328 268 264 295 264 250 259 267 241 137 221 85 44 72 49 129 118 85 170 247 158 44 51 51 65 98 45 46 53 104 113 93 67
69 70 69 70 61 50 54 47 54 57 89 78 48 28 293 255 264 433 294 300 209 154 110 226 97 102 113 59 76 78 89 81 55 92 179 104 85 53 89 30 96 38 60 120 193 173 158
82 76 77 74 61 54 46 41 39 81 84 56 59 137 377 294 341 438 467 291 240 109 76 67 178 164 108 52 141 125 75 57 48 78 152 248 91 72 120 45 79 93 100 81 108 60 90
77 85 80 72 47 34 25 19 66 95 81 66 255 390 392 405 363 437 349 163 167 79 48 75 128 181 146 115 261 306 189 92 66 169 99 208 166 151 112 50 39 55 106 133 89 167 138
65 65 60 43 25 10 12 57 83 68 83 153 613 681 592 597 551 527 372 295 145 124 119 42 158 199 168 230 151 66 137 112 188 138 108 120 123 108 59 95 16 133 55 71 57 87 163
57 54 53 42 24 15 34 59 55 132 293 716 899 659 647 803 751 544 351 244 184 84 87 73 121 206 152 127 162 214 222 288 100 46 52 128 122 148 28 32 26 80 67 44 113 97 99
53 56 54 47 30 13 98 62 97 262 790 1093 1089 951 435 660 571 505 361 311 230 98 169 245 346 260 295 356 256 263 209 92 83 68 108 105 87 111 66 87 94 103 87 72 90 125 140
52 53 53 39 99 213 287 476 369 416 612 977 1161 807 616 352 436 346 409 242 261 113 172 298 297 450 442 384 259 172 207 121 186 167 104 105 64 42 25 125 171 125 79 82 93 183 158
49 46 41 41 178 267 404 397 796 537 522 597 433 629 639 329 395 302 278 255 187 221 170 122 283 250 299 250 184 231 207 151 151 142 69 68 50 31 72 87 114 99 74 52 74 115 140
37 27 32 29 130 250 239 358 502 428 546 413 348 459 403 132 292 337 196 174 138 45 182 103 208 110 142 189 128 108 107 103 109 86 49 76 55 71 58 67 55 54 3 20 41 103 137
16 26 29 34 86 139 191 243 329 337 413 322 383 161 364 150 247 325 297 260 199 291 232 204 188 219 28 54 29 34 79 51 78 64 54 76 55 43 27 72 20 50 73 60 66 99 56
19 23 23 34 61 55 158 175 209 182 237 218 416 353 323 188 185 241 227 226 290 383 348 296 125 111 195 208 232 181 158 100 73 60 4 19 32 31 56 55 98 107 70 69 85 61 102
11 20 14 19 25 76 77 83 171 118 102 40 98 328 394 378 277 324 271 390 451 406 292 173 72 113 117 85 119 87 81 69 53 44 34 55 55 59 68 61 108 81 82 75 53 43 67
3 -2 10 5 6 20 54 73 186 269 198 146 107 99 122 296 213 283 395 322 317 256 292 303 235 87 79 143 58 49 46 40 39 40 42 45 37 56 46 66 116 115 89 65 52 52 55
0 -4 31 21 7 4 26 122 215 131 152 223 156 89 87 136 128 54 95 150 58 98 208 118 91 89 172 92 59 69 52 9 47 30 49 33 32 29 35 63 90 101 147 100 69 93 70
6 10 28 17 13 -23 8 138 212 170 230 146 111 44 21 123 39 -28 2 -22 33 57 105 36 123 107 154 108 91 86 95 70 61 61 55 22 46 59 48 62 141 136 96 107 136 126 90
41 48 50 38 -26 2 4 112 171 187 139 63 29 46 32 96 188 221 269 136 172 122 42 44 118 95 113 122 75 85 74 76 46 39 91 120 122 96 118 98 91 155 113 121 113 121 131

GFSGBSN_con_3kmhel_135.txt.gz
Helicity
157 151 152 158 151 146 162 124 99 107 117 95 88 84 76 59 43 40 32 33 35 50 58 66 57 47 27 15 21 40 2 -11 -5 27 59 61 75 81 61 61 80 87 96 83 70 81 84
105 114 122 117 133 141 148 145 147 115 136 122 121 95 71 78 76 63 43 37 36 39 46 48 51 60 18 20 76 60 22 31 21 31 19 50 61 65 49 52 86 72 1 61 66 43 90
151 119 114 94 83 92 131 144 156 186 99 126 129 109 101 88 88 92 72 49 38 37 41 47 37 26 33 26 101 90 40 46 71 57 49 75 75 77 80 67 89 55 80 54 59 79 76
174 162 160 147 112 107 116 129 159 173 194 144 141 130 124 123 90 86 77 61 33 39 48 52 42 32 23 59 115 68 86 46 60 52 54 47 66 53 77 63 73 72 106 140 102 42 64
167 170 158 153 144 124 112 125 134 155 189 192 207 121 137 128 108 98 97 80 81 61 44 48 43 30 8 64 83 64 58 36 60 60 57 34 82 70 97 100 96 98 122 151 139 61 100
149 130 132 138 134 130 134 94 105 146 166 197 216 182 126 126 124 126 114 96 97 98 58 13 65 94 76 67 68 48 69 61 77 70 72 74 77 98 101 141 71 158 136 81 135 118 132
116 113 115 123 137 133 132 128 107 96 127 148 165 169 101 114 132 143 146 124 117 132 120 129 110 135 151 39 173 117 71 97 76 97 76 68 129 100 92 126 96 92 92 123 76 72 159
87 79 85 97 113 124 128 118 112 105 98 104 126 148 132 76 154 215 196 172 187 113 136 115 78 94 41 101 129 127 87 103 85 85 68 127 116 80 83 146 148 145 115 92 99 103 200
100 81 95 89 103 119 112 109 88 84 102 118 127 151 146 147 195 216 207 209 104 95 107 82 129 119 127 112 170 176 99 122 87 88 63 88 84 166 133 145 155 153 141 148 157 95 60
87 82 88 95 90 111 108 96 102 67 78 89 123 148 143 153 151 143 179 114 67 114 147 97 67 103 170 196 255 150 89 259 167 106 59 103 70 51 175 194 145 176 158 263 159 154 140
79 84 70 75 86 99 95 79 72 61 65 70 83 100 105 99 98 95 71 70 93 131 222 112 124 129 135 286 319 92 16 231 179 141 154 183 169 131 175 217 106 162 185 144 98 98 118
71 67 63 63 66 69 67 69 57 54 48 65 85 92 76 89 103 115 99 98 167 214 265 242 195 130 119 94 154 211 251 327 336 157 84 112 82 235 206 139 141 226 138 87 80 119 179
73 70 70 65 66 65 60 59 48 49 43 57 87 102 104 138 155 150 166 196 200 319 204 200 184 114 48 128 101 109 222 271 217 169 127 96 70 108 184 158 174 145 144 192 222 279 182
76 78 65 65 64 61 54 51 51 47 39 57 71 92 108 119 93 169 287 236 226 155 188 213 118 124 117 132 162 67 142 128 113 51 122 183 171 70 184 178 172 117 128 180 208 215 138
78 71 64 64 60 61 61 55 51 57 53 55 69 119 145 137 54 244 300 247 282 201 194 116 73 113 140 87 156 116 80 113 91 73 151 187 134 117 141 172 81 147 107 64 96 99 117
81 73 77 73 67 66 64 46 45 49 61 63 113 114 151 144 99 291 301 185 222 154 165 179 181 177 160 170 171 227 230 142 56 74 156 190 118 147 124 120 88 142 180 168 165 141 123
96 86 71 69 67 59 48 47 28 30 47 64 128 183 130 168 283 436 405 433 199 184 106 126 111 185 188 212 166 273 233 134 36 198 299 289 155 152 179 164 83 81 101 136 125 177 183
82 78 73 71 62 50 43 31 -9 32 69 99 236 330 240 461 545 546 471 356 262 134 49 157 134 102 125 231 200 266 205 168 176 292 315 273 270 177 172 148 66 88 139 122 161 131 173
82 80 75 68 55 78 76 45 -9 45 160 447 469 626 325 506 466 556 464 305 240 156 140 124 153 134 171 182 209 310 254 155 182 179 245 224 265 143 93 67 97 136 123 140 157 157 104
95 77 68 63 61 80 96 83 113 322 176 661 692 603 604 397 463 432 453 398 231 174 154 101 180 322 331 339 405 285 286 213 131 255 243 225 132 69 73 71 209 191 213 152 161 188 205
90 79 74 49 57 86 111 158 249 407 736 839 828 623 681 528 333 553 435 391 303 207 92 157 318 275 372 365 388 373 319 339 262 229 114 124 29 90 59 -11 42 143 101 99 92 110 148
64 62 53 36 38 77 122 153 209 359 499 705 618 636 721 443 675 612 449 478 204 65 135 228 314 326 287 311 349 349 246 236 205 164 82 118 75 43 45 57 70 95 90 78 64 86 149
32 44 37 27 22 67 91 95 145 282 350 421 163 257 465 311 546 488 433 329 73 8 148 171 265 186 170 146 109 87 75 199 115 146 192 151 102 64 26 51 61 21 95 129 113 108 96
44 31 26 24 28 35 102 50 102 212 223 167 194 170 143 165 98 194 313 225 91 57 231 175 293 159 133 84 106 82 49 57 75 81 92 72 52 70 54 89 47 58 55 64 84 89 102
41 37 20 7 22 38 75 71 38 129 165 84 92 202 199 85 91 164 99 121 146 328 279 342 350 250 161 242 203 179 167 123 55 30 -4 -1 36 75 53 39 60 47 72 114 107 54 111
46 28 17 14 19 32 64 49 68 107 105 -5 47 93 232 226 46 87 196 289 475 412 410 507 360 164 109 127 101 248 259 104 32 52 40 21 71 75 89 64 41 61 64 88 27 34 181
18 18 3 -3 17 31 58 81 127 163 93 68 51 40 74 96 128 292 453 459 492 570 547 406 298 261 162 183 128 149 70 54 43 45 79 99 71 43 48 55 88 67 104 149 115 62 193
26 9 21 34 20 63 31 49 115 114 189 151 158 66 38 -19 111 210 296 363 344 409 410 223 335 282 218 191 102 95 50 56 82 85 64 88 63 66 67 87 92 165 148 98 95 137 151
25 9 25 30 33 18 54 102 96 105 234 128 108 73 76 153 167 111 188 90 6 41 187 150 177 211 102 131 77 51 70 64 93 17 76 81 31 71 87 89 113 136 117 129 152 220 230

GFSGBSN_con_3kmhel_141.txt.gz
Helicity
159 132 159 147 164 168 161 164 181 160 111 96 87 81 65 54 52 49 62 62 73 66 77 68 58 63 1 38 10 12 14 17 12 18 32 36 57 45 53 48 49 33 32 49 64 39 52
140 145 148 154 144 171 167 158 162 172 153 104 91 86 91 67 45 55 59 71 51 52 53 45 55 49 9 27 50 35 31 24 18 23 42 56 48 27 31 31 43 44 26 11 6 47 75
124 126 120 143 147 143 138 143 142 142 149 127 83 89 92 84 70 68 71 52 56 47 44 50 50 10 30 31 77 72 56 49 28 24 49 39 34 70 51 50 45 31 28 14 36 47 76
134 163 184 156 164 123 115 109 127 143 148 145 136 105 96 107 95 94 67 68 60 50 65 47 59 43 23 59 79 58 81 68 61 50 51 63 44 53 51 48 83 76 81 75 98 100 104
148 161 164 161 147 144 120 103 98 122 148 160 165 172 115 125 117 108 93 80 74 61 60 56 74 82 28 68 78 64 79 76 64 61 62 71 78 87 99 104 107 122 89 82 107 119 145
130 117 132 142 149 139 132 152 137 98 135 150 184 188 198 140 134 132 125 91 83 74 80 85 136 119 90 105 95 89 85 113 112 101 113 122 145 147 129 144 79 83 119 110 105 153 195
121 120 152 125 136 143 136 156 158 127 94 123 156 174 182 171 159 144 142 118 114 92 129 122 150 144 132 170 162 155 136 152 144 136 117 142 189 130 107 104 141 167 156 140 103 139 162
105 110 117 121 117 128 132 135 155 151 116 109 131 152 162 131 132 135 139 119 109 84 89 82 87 130 42 137 253 227 218 166 180 153 192 208 169 97 162 135 117 131 138 144 115 122 163
95 115 109 116 114 123 134 151 170 160 117 116 131 133 134 140 138 138 128 108 116 82 71 27 96 158 162 169 220 191 263 249 214 195 181 202 159 160 100 140 157 142 155 143 130 132 123
105 112 112 94 96 115 128 132 155 164 137 145 146 120 113 109 148 126 118 70 101 64 125 58 80 90 89 139 204 117 191 340 286 199 144 145 131 83 78 128 129 166 118 129 133 166 176
91 92 95 90 88 83 98 133 145 152 169 120 116 92 85 129 113 114 99 55 62 87 206 135 140 76 66 53 127 91 80 224 223 220 222 193 139 142 162 131 133 144 126 146 150 170 195
87 90 86 91 79 64 88 112 122 129 121 106 86 74 85 113 109 89 107 68 108 250 265 268 125 85 100 58 108 110 110 129 132 153 143 132 102 83 95 108 134 157 239 232 225 208 236
84 92 82 88 93 93 96 97 104 109 107 80 63 71 85 84 106 82 116 163 276 322 241 137 125 111 119 110 90 144 142 163 158 190 139 109 91 47 67 79 73 219 261 261 239 289 221
92 90 79 88 94 88 87 93 94 94 88 72 89 84 93 89 91 102 161 266 308 233 221 245 185 142 105 72 57 86 154 150 167 177 171 157 169 46 55 76 172 231 228 302 287 192 199
89 86 69 67 82 79 76 81 82 87 70 63 86 132 157 99 81 142 213 278 266 210 179 233 193 163 186 145 141 129 117 128 125 203 177 110 116 43 80 31 94 170 250 189 143 173 196
80 72 94 84 87 77 71 73 75 78 65 87 141 139 166 88 103 191 254 222 224 237 281 224 134 145 139 137 160 161 117 72 95 152 191 106 103 42 -7 10 72 155 140 233 262 226 196
90 89 98 93 86 81 80 71 62 58 55 100 161 168 99 131 177 235 307 311 217 244 328 212 206 174 117 89 117 142 101 77 65 41 168 190 138 81 58 88 78 199 217 276 287 246 201
83 106 107 96 95 97 90 66 55 33 32 134 173 202 132 187 252 326 298 394 252 253 131 156 194 182 159 129 111 110 118 110 59 83 96 117 98 103 64 33 91 162 162 217 154 168 175
106 108 111 110 100 95 92 73 63 53 100 172 176 184 125 141 261 257 259 163 152 261 256 273 205 179 192 125 119 95 108 68 117 115 95 141 131 104 113 89 104 133 138 137 145 176 137
117 90 89 86 80 90 79 63 64 45 65 139 194 180 218 212 286 216 178 138 129 196 137 213 246 176 170 158 128 124 84 85 142 143 140 159 171 194 150 96 129 118 99 95 110 178 171
76 70 81 87 78 77 75 61 59 38 67 125 192 224 250 221 314 306 277 294 159 202 241 221 161 144 182 167 119 105 58 68 166 219 247 205 207 293 219 165 109 117 136 109 107 112 166
75 65 62 61 70 79 85 79 49 44 112 185 258 307 333 283 248 218 288 280 244 292 272 253 129 125 82 -17 131 38 65 76 124 257 257 348 298 250 198 116 99 99 71 114 77 75 130
58 44 44 46 52 72 82 66 41 49 110 161 259 272 240 193 201 244 265 211 157 235 314 366 275 185 62 -8 67 40 68 65 112 184 221 239 243 138 146 148 158 38 47 120 103 109 131
47 35 38 38 31 61 60 50 36 46 87 113 119 215 201 213 210 216 211 237 224 320 388 268 174 116 152 8 45 90 94 93 97 105 152 144 218 169 112 164 -33 39 51 26 40 31 140
50 40 29 24 39 55 48 48 33 52 84 139 151 153 137 124 76 73 33 16 97 129 221 263 219 169 52 132 40 107 138 59 15 19 162 151 97 159 130 109 40 7 25 -4 20 17 106
51 34 29 32 47 54 41 48 37 45 65 126 112 111 155 102 40 47 23 93 140 116 119 144 97 49 104 97 103 51 20 33 15 86 142 95 90 65 52 54 14 25 -8 44 62 32 83
85 42 35 34 46 40 27 29 36 57 75 107 46 37 98 95 40 32 68 51 119 127 145 137 139 90 169 189 91 52 128 84 105 61 133 106 50 42 85 45 33 16 48 55 23 5 64
45 63 69 59 43 32 32 35 29 40 35 68 34 63 77 76 39 22 24 107 136 103 129 155 234 189 176 138 123 92 22 102 68 85 84 109 56 57 178 117 50 94 119 58 49 49 56
58 53 35 33 54 27 10 36 40 36 20 58 55 71 80 61 13 14 78 28 73 73 136 189 109 179 161 159 112 145 125 136 132 65 89 61 77 44 33 12 65 83 35 77 73 60 63

GFSGBSN_con_3kmhel_144.txt.gz
Helicity
160 169 162 150 133 133 152 138 148 161 151 114 100 86 85 71 61 63 57 56 66 61 56 63 59 61 -13 34 18 46 47 33 24 24 22 31 49 45 66 58 53 50 40 36 24 25 23
198 178 151 151 149 152 165 156 157 142 168 152 139 107 87 78 65 62 40 54 59 62 39 51 39 47 -10 30 68 70 56 47 38 31 32 41 41 40 60 57 55 44 27 21 2 15 46
150 146 130 138 122 140 165 158 154 150 144 152 135 107 99 89 78 76 58 52 41 49 50 41 27 -13 15 41 94 88 77 67 42 37 39 49 43 61 53 75 49 42 36 45 55 60 49
124 118 106 121 129 126 127 123 147 145 141 140 133 120 83 96 91 92 88 75 55 44 60 50 47 22 24 57 68 59 99 87 69 54 62 59 61 79 76 69 94 87 84 72 78 94 98
118 107 124 124 140 157 132 108 96 117 129 134 156 153 148 116 114 120 105 78 49 64 62 50 67 70 17 39 72 51 88 86 83 80 82 78 92 110 107 103 116 139 104 107 118 88 100
111 145 147 143 125 128 138 135 132 89 110 126 142 163 161 158 133 129 98 59 67 84 99 84 140 120 70 79 97 89 65 87 107 116 124 144 164 152 149 140 80 80 107 135 140 163 193
124 135 127 113 128 140 131 140 156 135 76 89 141 156 171 165 162 126 106 100 105 85 106 102 131 137 90 103 133 121 139 160 158 160 119 155 196 142 74 120 156 156 147 133 106 109 154
101 119 134 137 131 138 140 157 160 171 157 107 122 147 158 132 129 124 127 107 110 88 77 56 51 109 59 159 206 179 196 204 223 168 185 194 145 74 151 128 150 155 133 124 89 87 136
80 107 105 118 125 118 134 139 167 169 139 126 107 119 139 134 134 157 133 111 118 85 57 21 96 143 117 177 190 120 263 278 235 217 189 203 191 153 114 163 170 171 176 151 130 136 154
85 86 94 111 103 103 110 134 146 154 164 111 122 111 109 121 151 126 149 137 102 70 114 38 78 95 57 97 124 72 116 272 281 196 170 176 144 122 141 169 153 184 98 99 148 178 207
99 90 87 90 77 87 95 98 104 137 157 116 103 93 124 132 121 159 133 89 82 104 188 124 114 40 64 64 93 100 75 145 169 205 187 168 140 124 155 118 124 151 124 138 168 211 227
96 95 94 82 75 92 71 94 118 128 142 108 93 105 107 136 157 150 132 95 128 243 279 239 100 102 131 88 90 78 72 94 74 98 139 90 120 111 108 92 121 118 164 234 251 275 294
103 98 99 93 102 79 55 106 129 128 128 113 92 95 106 120 176 129 117 162 269 312 205 145 135 121 72 63 44 51 65 95 111 130 114 88 71 120 136 120 65 96 194 234 267 353 268
98 78 92 103 87 84 94 106 109 111 104 82 86 95 103 119 114 132 164 262 266 215 171 236 206 114 64 68 62 83 125 123 109 146 142 123 145 55 74 55 131 107 155 279 265 254 203
81 73 97 89 79 89 94 100 93 100 107 105 135 132 119 112 92 142 214 289 220 175 172 199 152 113 119 103 117 125 99 117 79 157 155 103 106 79 59 50 96 115 188 90 212 227 203
61 82 83 85 71 68 85 89 83 86 80 109 134 144 124 105 105 183 247 224 219 183 227 180 110 96 100 93 112 115 109 88 60 101 201 116 103 52 51 55 40 90 67 172 282 227 215
94 68 89 83 83 67 88 81 71 76 86 103 167 180 121 120 158 215 242 205 169 167 176 129 125 128 91 80 95 117 113 84 76 84 84 110 126 86 76 76 78 131 160 179 157 201 213
113 118 99 78 93 94 93 82 60 68 86 135 202 187 101 176 205 233 171 207 174 128 121 102 116 119 128 151 149 147 136 126 120 40 61 56 82 69 44 60 61 88 101 154 149 129 202
103 88 81 91 89 91 89 78 54 44 105 193 181 182 125 174 188 193 219 148 80 107 185 112 116 96 119 118 161 143 123 58 48 48 54 52 74 50 55 69 95 127 144 190 188 154 195
107 88 84 75 82 97 110 99 61 58 42 153 221 208 204 176 203 158 117 106 118 112 44 43 153 152 152 173 172 147 133 102 109 65 36 134 129 118 78 67 107 101 96 87 139 104 101
112 113 98 103 95 97 96 85 56 63 69 198 235 203 191 157 188 173 155 140 73 116 130 116 125 109 208 225 178 116 101 13 -13 55 87 117 99 131 134 145 179 176 126 98 134 139 144
119 133 128 150 105 89 86 80 66 63 84 191 243 237 247 200 170 109 129 125 96 160 185 216 169 205 89 144 160 169 106 65 44 71 71 74 77 105 92 125 158 179 153 81 131 138 75
127 119 113 95 96 87 64 73 59 60 128 236 223 181 173 151 173 193 186 138 96 103 122 188 193 184 179 205 139 82 31 48 36 27 75 98 101 126 99 147 127 38 127 157 232 153 149
104 103 101 87 82 75 66 64 59 58 104 202 214 197 231 197 199 169 158 126 117 169 220 206 136 133 335 140 103 34 51 55 69 74 121 99 111 115 115 109 -12 144 102 113 56 29 100
123 93 62 53 53 41 32 41 52 47 63 158 146 144 147 147 189 131 107 87 85 100 81 -1 72 224 226 124 108 67 24 115 89 86 44 111 120 82 66 181 130 15 70 40 13 18 9
76 39 22 37 32 15 23 31 37 30 33 121 118 103 110 102 82 67 50 83 90 84 3 21 56 109 220 132 121 112 112 111 58 47 60 140 198 181 158 71 20 24 18 18 -7 20 18
39 25 36 51 26 16 42 42 30 26 22 114 118 131 137 88 41 106 65 56 60 90 53 83 71 25 95 69 139 142 82 36 5 18 43 142 136 32 88 42 25 10 29 54 38 -16 58
28 36 41 35 24 26 52 36 28 31 33 88 106 111 127 64 -3 67 40 34 82 131 67 76 106 81 94 79 74 67 54 66 63 51 71 72 71 40 44 22 31 100 131 51 37 65 40
34 68 88 78 38 46 54 30 26 28 46 68 96 76 79 67 75 75 55 38 87 97 71 96 111 57 70 97 47 82 80 42 6 38 104 88 79 61 47 -0 6 39 59 75 60 61 42

GFSGBSN_con_3kmhel_147.txt.gz
Helicity
186 190 157 146 110 123 143 145 142 136 136 118 97 88 87 88 79 69 72 76 60 42 29 25 31 46 -20 32 28 63 49 39 35 29 30 28 46 33 53 46 41 60 82 73 57 57 40
202 190 178 147 137 141 154 151 159 159 156 168 150 108 101 101 94 70 59 64 43 38 19 12 15 16 -4 47 53 66 58 56 57 35 25 37 42 44 63 64 59 58 55 46 33 34 44
194 196 187 123 128 178 185 169 174 156 151 144 156 148 121 100 87 84 59 68 56 40 33 23 23 -11 30 31 75 66 70 75 64 47 34 39 48 61 56 70 69 70 65 58 53 59 64
129 134 106 85 123 105 136 130 128 117 135 145 155 136 107 99 95 84 82 72 58 48 43 30 38 19 40 70 59 61 88 92 79 69 67 64 74 80 83 75 92 90 73 85 72 80 110
156 137 134 125 107 105 100 105 98 99 116 128 133 140 139 112 83 96 93 77 61 54 58 40 54 54 25 43 56 35 32 45 65 79 85 87 83 94 88 96 87 112 96 93 96 100 100
174 149 124 138 156 130 112 116 132 98 93 110 122 131 124 118 94 100 94 74 81 74 79 78 101 75 57 90 74 61 52 65 103 117 126 132 132 115 110 102 98 110 99 94 102 112 136
106 138 154 123 124 134 122 129 141 131 113 82 106 129 141 130 127 124 120 98 80 60 73 50 81 89 89 109 72 79 104 134 152 156 114 147 135 110 75 113 140 129 123 124 103 87 117
101 83 118 130 113 119 124 107 149 151 131 98 97 109 125 120 124 128 117 103 86 77 63 40 40 58 79 121 147 141 163 138 156 142 182 166 124 93 143 139 142 156 134 116 100 84 121
116 98 63 107 125 105 104 132 135 149 147 117 100 98 125 115 125 146 125 118 90 53 39 30 61 79 92 117 123 63 167 230 219 215 166 136 168 173 151 161 150 161 174 151 116 147 138
101 106 71 58 78 105 106 118 107 127 124 90 79 90 96 106 141 133 142 108 74 57 88 40 83 89 47 42 89 49 81 161 177 135 135 137 109 97 125 139 119 148 79 128 146 170 203
109 113 96 71 75 77 90 100 98 112 116 70 90 96 112 122 123 140 105 78 58 90 147 115 116 32 46 67 90 111 17 90 35 120 116 109 124 142 130 90 94 121 138 136 112 152 197
84 70 97 98 91 93 98 92 86 104 114 95 76 89 114 148 154 128 124 91 117 186 212 210 154 117 123 90 93 67 66 60 55 86 105 75 98 82 87 96 86 121 156 138 176 186 242
86 78 98 115 107 99 100 90 93 105 109 112 91 108 160 166 180 164 125 162 255 272 209 229 191 129 95 100 72 59 83 78 88 110 90 103 64 52 91 84 54 81 108 199 199 217 226
92 82 95 101 100 82 94 89 100 102 94 105 104 117 158 141 127 134 144 249 323 262 229 220 184 155 134 88 84 84 106 101 62 111 117 118 137 37 53 23 72 103 108 198 217 178 186
97 96 84 101 106 92 95 97 85 98 99 96 124 138 141 108 94 122 191 288 233 198 218 236 179 135 120 99 87 83 63 71 46 65 73 79 89 56 40 64 59 100 134 85 109 111 165
97 92 90 84 102 96 97 100 95 98 107 117 163 144 125 77 91 156 232 238 227 217 245 173 144 116 114 75 70 65 49 65 45 38 95 81 105 56 36 53 66 74 76 127 194 158 156
98 97 101 101 104 87 81 86 87 97 112 94 164 172 126 80 148 219 236 223 216 193 183 141 120 111 67 65 60 70 96 85 61 86 44 93 110 86 76 57 76 94 78 129 121 137 147
105 93 101 93 103 88 80 77 78 82 73 148 187 200 130 130 205 235 183 171 161 175 158 107 92 85 96 92 65 73 91 83 110 80 105 59 90 96 41 48 34 44 54 79 115 89 93
128 101 87 92 96 101 97 72 69 70 99 188 197 181 142 181 189 205 213 150 124 135 111 122 108 62 69 59 81 62 62 59 52 55 137 80 125 96 52 61 71 58 62 67 87 142 83
136 145 114 124 123 115 133 102 65 65 65 185 198 178 218 184 175 139 132 115 119 81 45 73 87 119 103 112 111 122 119 98 97 63 31 75 67 53 49 68 74 50 58 79 78 87 88
84 114 148 134 117 92 108 82 64 60 36 175 197 186 169 158 151 145 111 88 42 60 49 46 64 44 55 96 88 83 74 72 27 -47 -7 43 85 89 61 58 66 107 100 115 121 155 122
158 163 126 134 124 120 100 101 54 55 8 182 237 234 233 190 96 48 64 63 47 78 104 63 69 134 108 121 179 148 110 142 98 140 59 84 47 48 29 54 69 90 94 143 225 198 135
95 103 106 98 102 116 94 67 85 51 135 284 288 263 200 115 166 106 109 83 57 47 70 90 106 110 103 172 122 166 92 -5 -13 -40 -10 55 78 72 22 54 79 -3 107 168 151 131 120
83 136 114 115 138 123 91 75 94 73 149 231 240 221 184 141 104 100 87 73 71 73 73 84 74 93 176 115 49 54 36 40 36 -6 9 23 67 83 58 79 -30 78 92 80 78 55 65
97 111 101 92 114 119 101 77 97 86 114 228 216 192 187 83 59 59 68 89 94 64 89 97 108 144 94 129 190 166 111 64 44 50 23 21 72 105 50 -14 10 29 119 99 58 7 25
77 81 85 102 119 104 87 63 87 75 96 186 184 142 124 92 23 52 41 60 80 76 54 78 65 62 115 205 162 180 121 46 76 55 27 58 72 84 49 -21 -11 88 64 28 9 -15 -25
98 102 100 91 84 75 57 52 49 71 76 155 120 110 139 101 65 74 74 32 77 62 65 63 34 91 165 197 207 205 200 106 111 64 59 62 83 16 17 26 62 67 99 68 19 -5 -9
120 105 107 58 30 42 29 29 19 23 59 143 121 87 122 109 48 91 58 48 53 50 82 43 77 88 123 134 151 161 200 105 75 49 62 61 26 72 126 43 -6 103 126 56 52 35 38
75 44 27 17 30 35 27 30 3 16 51 108 113 80 136 129 77 77 44 31 58 30 68 158 81 41 72 71 79 125 116 71 55 53 75 57 91 46 64 62 81 67 58 72 50 60 53

GFSGBSN_con_3kmhel_150.txt.gz
Helicity
215 166 165 149 148 138 115 97 93 113 121 105 114 85 89 84 74 76 62 59 56 43 24 14 12 45 3 32 33 74 54 57 39 34 51 45 50 42 45 41 33 22 51 61 68 68 76
166 175 158 141 153 135 131 125 130 118 135 143 132 116 118 95 78 97 92 69 52 44 41 15 13 1 2 41 68 66 50 43 58 54 44 43 52 52 46 55 54 67 45 37 51 59 64
244 235 230 196 157 134 149 142 134 154 168 157 142 133 110 90 93 97 105 73 39 40 54 37 12 1 9 23 57 46 56 52 64 65 52 55 45 43 61 42 64 57 59 46 45 60 59
253 257 230 151 122 109 131 110 128 136 151 142 129 135 108 90 84 102 84 72 45 52 54 35 22 14 37 66 48 36 46 53 58 58 64 71 61 61 62 76 53 50 50 59 97 76 91
178 71 86 96 144 121 128 128 125 104 109 107 97 100 117 105 78 75 78 69 61 49 55 31 21 41 25 45 47 34 18 35 42 48 53 55 49 64 62 57 39 54 71 92 95 91 103
0 90 130 175 173 165 151 166 129 118 79 70 71 90 100 110 105 82 81 60 69 53 41 51 69 53 53 72 50 41 59 56 76 84 70 56 65 60 81 73 96 153 63 71 92 89 65
-18 118 175 159 180 161 137 107 139 137 118 56 72 91 108 110 113 110 56 44 14 18 41 53 116 92 101 107 60 78 99 85 94 84 71 106 71 67 150 158 132 114 109 91 93 100 112
86 73 108 138 135 138 138 117 142 147 127 93 75 74 110 122 117 99 85 78 113 115 68 48 50 46 63 101 113 114 109 97 101 73 138 113 88 152 119 129 123 121 105 96 97 73 139
103 106 90 77 95 113 104 109 110 119 133 115 103 100 111 126 120 91 90 114 84 53 50 67 95 88 98 88 113 97 129 178 129 119 98 101 166 169 118 121 133 108 143 156 143 189 130
119 97 98 94 90 99 109 99 112 129 147 145 97 116 113 125 105 112 100 92 69 45 69 62 109 118 86 62 104 70 42 71 76 89 86 112 129 95 98 110 119 145 152 126 149 166 160
114 99 86 122 95 99 105 122 125 123 128 118 102 121 111 113 137 107 113 80 59 42 154 109 118 60 69 86 103 118 44 55 40 91 107 149 107 111 120 129 117 168 115 150 165 162 165
101 96 70 106 100 72 96 126 134 125 132 136 115 116 115 138 132 125 102 77 72 115 176 142 136 141 137 94 123 114 103 43 62 71 40 37 78 74 70 89 53 116 83 90 87 121 191
111 91 72 79 85 68 66 88 92 92 113 129 104 109 122 158 173 135 113 127 165 219 174 183 216 180 147 159 116 61 60 69 115 138 118 130 86 40 21 65 31 42 79 166 189 151 97
119 105 93 85 83 76 74 77 83 76 98 125 96 109 151 154 157 135 138 231 230 246 272 245 206 155 175 160 143 102 102 102 65 79 125 155 144 101 92 42 123 108 89 159 188 176 244
121 110 114 107 106 99 78 86 82 67 92 105 128 131 136 126 141 138 219 295 269 291 260 258 205 151 157 130 130 108 107 93 84 35 107 153 102 83 31 74 59 129 109 68 152 103 142
109 121 119 119 121 106 110 103 98 80 89 104 141 151 139 113 124 144 238 306 280 242 227 196 163 166 136 121 106 95 96 107 71 53 42 110 99 82 93 36 1 33 75 121 125 124 79
89 117 123 134 136 109 102 113 106 85 93 109 148 188 153 111 135 201 255 246 226 192 200 203 150 130 115 100 77 59 89 77 82 94 86 119 89 127 81 77 58 107 78 92 95 112 112
110 124 132 142 136 126 99 108 107 107 92 127 217 256 147 149 231 245 216 211 192 166 138 100 96 83 75 79 63 65 58 51 111 104 103 111 147 111 75 59 28 30 48 39 90 63 77
101 103 130 144 171 158 127 101 92 89 78 160 205 239 137 204 221 209 194 139 123 119 90 86 83 67 61 71 84 61 55 77 52 30 145 175 193 125 94 90 72 87 57 78 58 49 40
99 73 123 140 143 161 103 111 91 62 67 140 210 225 225 184 197 146 134 101 91 74 49 66 83 64 47 88 68 91 75 59 69 118 210 196 161 132 102 78 73 72 47 31 49 86 51
74 100 107 163 164 49 86 121 116 68 54 161 193 186 180 166 174 141 106 102 59 54 42 53 55 11 54 83 58 42 60 80 60 46 67 166 161 86 48 21 22 21 37 34 -2 -2 15
101 119 165 94 113 82 116 142 135 94 19 136 182 195 194 162 66 44 73 94 36 54 71 51 22 59 69 18 56 99 104 116 152 186 316 247 171 180 97 36 35 -66 -20 -32 5 18 11
105 90 144 72 81 111 117 157 184 117 85 198 137 168 110 106 87 78 56 36 48 34 35 -2 26 57 24 66 59 55 72 70 78 79 132 205 219 179 57 54 61 -59 12 63 15 40 48
47 51 126 126 96 94 135 152 149 62 86 244 231 160 139 145 97 54 46 15 17 18 23 31 37 30 59 46 36 42 48 68 84 48 23 87 99 104 61 64 -29 65 78 50 44 33 35
86 71 156 205 206 138 127 133 127 121 99 158 123 164 134 122 89 75 46 23 26 23 21 17 9 19 21 98 98 70 57 165 83 59 60 39 19 93 69 10 -16 -17 47 95 75 16 23
65 75 88 166 100 50 80 86 91 108 121 151 135 105 109 86 52 36 87 38 34 29 37 27 29 6 37 128 138 109 118 124 87 64 48 31 27 42 38 24 -24 86 90 88 34 -3 19
81 75 82 61 92 104 89 72 79 93 120 154 137 113 112 114 91 90 82 53 54 45 68 64 52 37 46 119 150 122 127 124 101 85 92 71 39 27 -3 -25 -29 52 128 110 2 6 8
62 78 80 84 85 78 84 79 72 89 108 161 144 107 97 118 66 66 60 26 29 29 53 42 34 52 88 115 102 112 91 75 83 83 89 62 60 45 -8 -21 -31 120 116 65 50 84 45
119 58 64 77 73 67 70 77 77 72 87 115 129 95 96 107 84 52 42 15 26 33 32 27 8 23 26 48 96 100 107 108 41 64 18 27 19 29 24 30 85 38 65 68 43 40 32